ROMMA est une association bénévole à but non lucratif. Votre soutien est indispensable : ADHERER à ROMMA ou FAIRE un DON

Chambon - (38, Isère)

Oisans (2460 m)   Longitude: 06° 10' 42" E   Latitude: 45° 01' 32" N Station partenaire n°803
 

Détail journalier du     <<     >>

Température Humidité Vent Dir Rafale Dir. rafale Neige 1 Neige 2
Heure (°C) (%) (km/h) (km/h) (cm) (cm)
01:00 2.09610SSO32SSO02
02:00 1.59614SSO34SSO04
03:00 2.98722S65S03
04:00 1.79619S61S04
05:00 2.49127SO56SO03
06:00 2.79127SSO54SSO04
07:00 1.99422SSO44SSO04
08:00 1.39618SO33SO04
09:00 2.39416SO33SO04
10:00 2.59318SSO35SSO04
11:00 3.18819SSO47SSO04
12:00 2.69418S42S04
13:00 2.29125SO46SO04
14:00 2.87935SO61SO03
15:00 1.89134SO55SO04
16:00 1.19233SO62SO04
17:00 1.98835SO64SO03
18:00 1.88832SSO60SO04
19:00 1.79016SSO47SSO03
20:00 2.48517SSO42SSO03
21:00 1.39318SSO40SSO04
22:00 -0.1999S34S04
23:00 -1.110010SO25SO06
minuit -1.210019SO31OSO010

Graphique du 02-11-2019

 

Serveur OMMA